Temp_Advection
nan nan nan nan nan nan nan nan nan nan nan nan nan nan nan nan nan nan nan nan nan nan nan nan nan nan nan nan nan nan nan nan nan nan nan nan nan nan nan nan nan nan nan nan nan nan nan nan nan nan nan nan nan nan
nan -0 0 0 -0 -1 -0 -0 -0 -0 -1 -1 0 0 -0 -0 -0 -0 -0 -0 -0 -0 -0 -0 -0 0 -0 -0 -1 -0 -0 -0 -0 -0 0 -0 -0 0 0 -0 -0 0 0 0 0 0 -0 -0 0 0 -0 -1 0 nan
nan -0 -0 -0 -0 -0 -0 -0 -0 -0 -0 0 0 -0 -0 -0 -0 -0 -0 -0 -0 -0 0 0 -0 -0 -0 -1 0 -0 -0 -1 -0 -0 0 0 -0 -0 -0 -0 0 -0 -0 -0 0 0 -0 0 0 0 0 -0 -0 nan
nan -0 -0 -0 -0 -0 -0 -0 -0 -0 0 0 -0 -0 -0 -0 0 0 -0 -0 -0 -0 0 -0 -0 -0 -0 -0 -0 -1 -1 -0 -0 -0 -0 0 0 -0 0 -0 0 -0 -0 -0 -0 -0 -0 -0 0 0 0 0 0 nan
nan -0 -0 -0 -0 -1 -1 -1 -1 -1 -0 -0 -0 0 0 -0 0 -0 -0 -0 -0 0 -0 0 0 0 0 -0 -0 -0 -0 -0 -0 -0 -0 0 0 -0 -0 -0 0 0 -0 -0 -0 -0 -0 -0 0 0 -0 0 0 nan
nan -0 -0 -0 -1 -1 -2 -2 -1 -1 -0 -0 0 0 -0 -0 -0 -1 -0 -1 -0 -0 -0 0 0 0 0 -1 -1 0 0 0 -0 -0 -0 0 -0 -0 -0 0 -0 0 -0 -0 0 -0 0 0 1 0 0 0 0 nan
nan -0 0 0 0 0 -0 0 -0 -0 0 -0 -0 -0 0 0 0 -0 -0 -1 -0 -0 -0 -0 -0 0 0 0 0 0 0 0 -0 -0 -0 0 0 -0 -0 0 0 0 1 0 -0 -2 -1 0 0 0 0 0 0 nan
nan 0 0 1 1 0 0 1 1 0 -0 -0 -0 -0 -0 0 0 -0 0 0 -0 -0 0 -0 -0 0 0 -0 0 0 0 0 -0 -0 -0 -0 -0 -0 -0 -0 0 0 0 1 1 -0 -1 -0 -0 0 0 0 0 nan
nan 0 -0 0 1 1 0 1 1 1 0 -0 -0 0 0 -0 0 0 1 0 -0 0 -0 -0 -0 -0 0 -0 0 0 -0 -0 -0 -0 0 -0 -0 0 0 -0 -1 0 -0 -0 0 0 0 0 0 0 0 -0 -0 nan
nan 0 0 0 -0 0 0 0 0 0 0 0 -0 0 0 0 -0 -0 0 0 -0 0 -0 -0 -0 0 0 -0 -0 0 -0 -0 0 -0 -0 -0 -0 -0 0 -0 -1 -0 -0 -0 -1 -0 0 -0 -0 0 -0 -0 -0 nan
nan -0 0 0 0 0 0 0 0 -0 0 0 -0 0 0 -0 0 0 0 0 0 0 0 -0 -0 -0 -0 -0 0 -0 -0 -0 0 0 -0 -0 0 -0 0 0 0 -0 0 -0 0 -0 -0 -0 -1 -0 -0 -0 -0 nan
nan -0 0 0 -0 0 0 0 0 0 0 0 -0 0 0 0 -0 -0 -0 -0 0 0 -0 0 0 0 0 -0 -0 -0 -0 -0 0 -0 -0 0 -0 0 -0 0 0 0 0 0 0 0 0 -0 -0 -0 -0 -0 -0 nan
nan 0 0 0 0 -0 -0 0 0 0 0 1 0 -0 -0 -0 -0 0 -0 -0 -0 0 0 -1 -0 0 0 -1 -1 -0 -0 0 -0 -0 -0 -0 -0 0 0 -0 -0 0 0 0 0 0 -0 0 0 0 0 0 0 nan
nan 0 0 0 1 0 -0 0 0 0 0 -0 -0 -0 -0 -0 0 -0 -0 0 0 0 1 -1 -1 0 -0 -1 -0 0 0 -0 -0 0 -0 -0 -0 -0 0 0 0 0 0 0 0 -0 0 0 0 0 0 0 0 nan
nan 0 0 0 0 0 -0 -0 0 0 -0 -0 -0 -0 0 0 -0 -0 -0 0 0 1 -0 -1 -0 -0 -0 -0 0 0 -0 0 0 -0 -0 0 0 0 0 0 0 0 0 0 0 0 0 0 -0 -0 0 0 0 nan
nan -0 0 0 0 0 -0 0 0 -0 -0 -0 -0 -0 -0 0 -0 0 0 1 1 0 0 -1 -0 -0 0 -0 -0 -0 -0 0 -0 -0 -0 -0 -0 0 0 0 0 0 0 0 0 0 0 0 0 0 0 0 0 nan
nan 0 0 0 0 0 0 0 -0 -0 -0 -0 -0 -0 0 0 0 0 1 1 0 -1 -0 0 0 -0 -0 0 0 -0 0 -0 -0 0 0 0 0 0 0 0 0 0 0 0 0 0 0 0 0 0 1 1 1 nan
nan 0 0 0 0 0 -0 -0 -0 -0 -0 -0 -0 0 0 0 0 0 1 1 -0 -0 -0 -0 -0 -1 0 0 0 -0 -0 -0 0 0 0 0 0 0 0 0 0 0 0 0 0 0 0 0 0 0 0 0 0 nan
nan 0 0 0 0 -0 -0 -0 -0 -0 -0 0 0 0 0 0 0 1 1 0 0 0 -0 -0 -0 0 -0 -0 0 -0 -0 0 0 0 0 0 0 0 0 0 0 0 0 1 1 1 1 1 1 1 0 0 0 nan
nan 0 0 -0 -0 -0 -0 -0 -0 -0 -0 0 0 0 -0 0 0 0 0 0 -0 -0 -1 -0 0 0 0 -0 -0 0 0 0 0 0 0 0 0 0 0 0 0 0 1 1 1 1 1 1 0 0 1 0 0 nan
nan 0 0 0 -0 -1 -0 -0 -0 -0 -0 0 0 0 0 0 0 -0 -0 -0 -1 -0 -0 -0 0 0 -0 -0 -0 -0 0 -0 0 0 0 0 0 0 0 0 0 0 0 0 0 0 0 0 0 0 1 1 1 nan
nan 0 -0 -0 -0 -0 -0 -0 -0 -0 -0 0 0 -0 -0 -0 -0 -0 -0 -0 -0 0 0 -0 -0 0 -0 -0 -0 -0 -0 -0 -0 -0 0 0 0 0 0 0 0 0 0 0 0 0 0 0 1 1 1 1 0 nan
nan -0 -0 -0 -0 -0 -0 0 0 -0 -0 -0 0 -0 -0 0 0 -0 -0 -0 -0 0 0 0 0 -0 0 0 -0 -0 0 0 -0 0 0 0 0 0 0 0 0 0 0 0 0 0 0 0 0 0 0 0 0 nan
nan -0 -0 -0 -0 0 0 -0 0 -0 -0 -0 -0 0 0 0 0 -0 0 0 -0 0 0 0 0 0 0 0 0 0 0 0 -0 -0 0 0 -0 -0 -0 -0 0 0 0 0 0 0 0 0 -0 0 -0 -0 -0 nan
nan -0 -0 -0 0 -0 -0 -0 -0 -0 0 0 -0 0 0 0 0 -0 -0 0 0 0 0 0 0 0 0 0 0 0 -0 0 0 0 0 0 -0 -0 -0 0 0 0 0 0 0 0 -0 0 0 0 -0 -0 -0 nan
nan -0 -0 -0 -0 -0 -0 -0 -0 0 0 0 0 0 1 -0 -0 -0 -0 0 0 0 0 0 0 0 -0 -0 -0 0 0 0 0 0 0 0 0 0 0 0 0 0 -0 -0 -0 -0 -0 0 0 -0 -0 -0 0 nan
nan -0 0 0 0 -0 -0 0 -0 -0 -0 -0 -0 0 -0 0 -0 -0 -0 0 0 0 0 0 -0 -0 -0 -0 0 0 0 0 0 0 0 0 0 0 0 0 0 0 0 0 -0 -0 0 0 -0 -0 -0 0 0 nan
nan -0 -0 -0 -0 -0 -1 -0 0 -0 -0 0 -1 0 -1 -0 -0 -0 0 0 0 0 0 0 0 0 0 0 0 0 0 0 0 0 0 0 0 0 0 0 0 0 0 0 0 0 0 -0 0 0 0 0 0 nan
nan 0 -1 -0 0 -0 -0 -0 -0 0 -0 0 -0 -0 -0 -0 -0 0 0 0 -0 -0 0 0 0 0 0 0 0 0 0 0 -0 0 0 0 0 0 0 0 0 0 0 0 0 -0 -0 0 0 0 0 0 0 nan
nan 0 -0 -0 0 -0 0 -0 -0 0 0 0 -0 -0 -0 0 0 0 0 0 0 -0 -0 -0 0 0 0 0 0 0 0 0 -0 -0 0 0 0 0 0 0 0 0 0 0 0 0 0 0 0 0 0 0 0 nan
nan -0 -0 -0 -0 -0 0 0 0 -0 0 0 0 0 -0 0 0 0 0 0 0 0 0 0 0 0 0 0 0 0 -0 -0 0 0 0 0 0 0 0 0 0 0 0 0 0 0 0 0 0 0 0 0 0 nan
nan 0 -0 0 -0 0 0 0 -0 -0 -0 -0 -0 0 0 -0 0 0 0 0 -0 0 0 0 -0 -0 0 0 0 0 0 -0 0 0 -0 -0 0 0 0 0 0 0 0 0 0 0 0 0 0 0 0 0 0 nan
nan nan nan nan nan nan nan nan nan nan nan nan nan nan nan nan nan nan nan nan nan nan nan nan nan nan nan nan nan nan nan nan nan nan nan nan nan nan nan nan nan nan nan nan nan nan nan nan nan nan nan nan nan nan
Wind_Speed
12 13 15 16 18 24 27 26 37 37 41 38 36 34 32 30 30 32 33 28 30 7 10 13 11 8 6 11 5 6 5 2 2 1 2 3 3 5 4 4 6 8 7 4 4 3 6 3 3 6 4 10 16 17
13 14 16 18 17 20 11 12 18 21 30 33 34 35 34 31 28 32 26 31 26 11 4 10 13 14 21 17 16 18 4 6 7 3 2 4 2 2 5 3 1 2 6 4 3 4 1 2 1 9 13 20 14 15
14 15 16 16 16 13 10 15 16 25 22 26 29 31 31 31 33 36 32 29 23 7 9 9 12 10 19 22 20 8 6 12 7 6 3 2 3 3 3 3 4 1 2 4 3 3 3 8 13 11 15 15 14 15
15 16 17 17 17 19 18 17 18 15 20 26 25 28 30 33 34 32 29 27 21 8 3 3 2 10 14 21 22 15 11 18 6 5 2 2 3 2 2 3 3 2 6 7 3 5 8 6 12 17 18 18 19 18
12 16 19 21 25 27 25 25 27 23 22 25 27 26 31 30 32 28 27 28 18 6 5 3 3 5 9 12 17 9 14 16 7 2 3 1 3 4 1 2 1 3 5 4 5 16 5 14 21 20 20 20 20 23
16 20 22 28 31 26 26 35 37 29 29 30 26 25 22 30 43 32 8 21 19 9 2 1 1 4 7 18 17 13 11 9 4 4 2 3 3 5 2 2 0 1 7 6 5 21 7 22 23 18 19 20 21 21
17 14 10 11 18 15 16 24 35 35 36 29 25 24 28 29 29 12 7 13 21 9 2 2 3 4 7 9 10 9 7 5 3 4 2 3 3 7 2 2 4 5 9 12 19 24 19 25 14 20 20 20 20 22
5 19 16 23 28 25 29 34 38 36 33 28 29 33 27 21 19 4 11 26 17 4 2 3 1 2 3 3 3 2 3 3 5 3 2 2 3 2 2 3 9 12 17 22 15 2 17 22 24 21 21 25 25 25
23 19 20 23 28 32 34 38 42 40 38 34 29 25 23 17 5 17 20 15 7 2 3 2 3 2 2 3 2 3 3 3 2 2 1 2 2 1 3 13 17 22 9 16 7 8 20 27 27 25 26 25 27 26
21 22 23 24 27 29 31 33 33 34 33 33 32 7 5 10 28 18 6 6 5 3 2 2 3 1 4 2 3 2 4 1 2 2 1 3 1 4 6 16 18 16 11 16 19 18 26 27 28 29 28 26 26 26
23 21 26 25 24 28 30 30 32 35 22 14 4 4 24 25 9 3 3 2 1 1 2 3 4 3 2 3 2 3 1 1 2 2 2 1 1 1 9 14 17 8 9 11 7 13 25 28 30 29 27 25 25 26
24 24 24 21 23 23 25 27 25 17 11 8 18 22 8 3 3 3 1 1 0 3 2 4 4 5 4 3 3 3 2 2 1 2 3 1 2 7 15 17 13 10 12 9 8 18 22 24 25 26 26 25 23 23
23 23 24 26 30 25 17 12 12 21 28 20 6 3 2 3 6 4 3 1 1 1 5 6 3 3 3 5 4 3 4 2 0 3 2 3 2 15 19 16 14 12 12 11 12 15 17 21 22 24 25 22 21 22
24 26 28 24 22 19 14 12 28 16 5 4 3 4 2 2 1 1 1 2 1 8 21 17 6 3 4 3 1 4 2 2 3 1 4 2 11 20 20 17 17 16 14 14 15 17 19 20 23 22 20 21 22 22
26 22 20 20 16 12 14 15 10 2 4 4 4 3 2 1 2 2 0 2 10 13 14 10 6 4 3 4 2 3 3 1 4 4 2 7 14 19 20 19 18 17 16 17 19 20 20 20 20 20 20 21 22 21
24 22 18 11 10 10 11 6 7 7 4 4 6 3 3 3 3 5 7 8 11 16 11 7 3 3 2 3 3 2 5 4 3 1 3 10 14 18 20 18 16 14 15 17 20 20 18 17 19 19 20 20 20 20
17 15 13 12 9 13 8 5 7 7 5 4 4 8 5 5 5 5 9 7 6 6 2 2 3 2 2 2 1 2 2 1 5 5 8 9 10 14 15 14 14 14 14 17 18 19 18 17 17 19 21 21 20 20
16 14 11 9 9 6 13 7 5 5 5 8 4 5 7 6 6 10 10 8 5 3 2 1 4 3 3 2 1 1 2 4 5 6 7 7 7 10 12 13 14 14 14 15 15 17 18 17 18 18 19 22 22 22
16 12 11 9 6 3 4 5 5 4 7 4 5 7 7 6 12 12 9 11 11 9 5 3 4 2 1 1 1 2 6 6 7 7 7 7 6 9 10 11 13 15 15 14 15 17 17 18 18 19 21 23 25 25
12 10 7 7 1 4 4 5 4 5 3 3 5 7 5 5 6 9 12 10 8 4 5 3 1 1 2 2 3 2 7 8 10 10 8 8 8 9 9 11 12 12 13 14 15 16 18 18 17 18 20 24 26 26
9 9 8 6 5 9 5 4 5 4 4 3 3 4 4 9 8 6 8 7 6 3 2 2 3 6 6 6 5 6 7 9 10 8 11 11 10 10 10 11 11 12 13 15 15 16 17 17 17 18 20 21 21 22
3 2 4 6 4 4 4 5 5 4 3 2 3 3 3 2 4 5 6 7 3 3 3 3 3 5 6 5 6 7 8 7 6 3 2 8 11 12 13 12 12 12 12 12 13 15 15 15 14 16 18 19 19 21
3 3 4 4 3 3 2 1 3 2 2 1 2 2 3 3 2 3 3 3 2 4 4 3 3 4 6 5 4 5 4 3 3 3 2 3 6 6 7 10 10 9 10 11 11 12 14 14 14 18 20 20 22 22
4 3 3 3 4 1 2 2 3 2 2 1 2 2 2 1 1 1 1 2 4 4 4 4 4 3 2 2 4 4 4 3 3 3 2 2 4 4 4 5 6 4 5 9 11 15 16 16 15 17 21 21 21 21
2 5 3 3 2 3 3 2 2 3 1 1 3 1 2 2 1 0 2 4 5 3 5 6 10 5 5 5 5 3 3 3 2 2 2 3 3 4 4 4 6 5 8 12 15 19 16 17 15 16 19 19 20 20
4 4 2 2 1 3 3 2 2 3 2 2 1 4 4 1 2 3 1 5 4 4 5 5 6 9 7 6 7 8 7 5 4 7 6 6 6 6 5 7 10 11 11 11 14 20 17 18 17 18 18 19 20 19
2 3 1 2 1 2 3 2 2 3 2 3 2 3 3 2 3 3 3 3 3 3 4 5 5 7 8 6 5 6 7 6 4 6 8 7 7 6 6 5 7 8 11 13 14 14 16 17 18 17 17 20 19 17
2 3 3 1 3 3 3 1 1 2 1 2 5 2 6 6 3 3 3 5 5 4 5 4 5 5 5 6 5 5 6 7 7 5 6 6 6 6 7 7 7 7 9 11 13 13 13 13 16 19 19 18 16 15
1 4 3 3 2 2 1 1 2 1 0 3 4 2 3 2 2 3 4 3 6 6 6 8 8 6 6 6 5 6 7 6 5 6 8 7 7 6 7 8 8 8 10 10 11 11 10 11 12 16 17 15 13 13
1 3 3 1 3 2 1 1 1 2 2 3 2 4 4 4 4 5 5 5 3 3 2 3 5 6 6 6 6 6 5 6 8 8 7 6 5 5 7 9 9 9 11 12 13 15 15 13 14 15 16 15 14 15
2 1 2 1 2 2 2 2 2 0 2 2 3 3 4 4 4 5 6 6 6 6 5 5 5 4 5 6 7 6 5 5 7 6 5 5 2 2 7 8 8 9 9 11 12 13 14 14 14 15 16 15 14 14
3 2 3 0 1 3 2 0 1 2 2 2 2 3 3 2 3 4 8 11 12 10 10 9 9 8 7 6 6 6 5 4 6 8 8 7 4 3 6 11 10 10 10 10 12 13 12 12 12 14 15 14 13 12
4 5 4 2 3 3 4 3 2 2 3 3 4 6 7 4 4 5 5 8 10 12 12 12 10 10 9 8 7 6 6 6 6 7 9 9 7 6 7 11 11 11 10 10 11 12 12 12 12 13 13 12 12 11
Wind_Direction
236 240 244 249 253 260 255 248 232 232 226 222 218 216 215 215 211 208 215 215 212 236 211 219 225 217 205 188 169 161 122 183 132 271 159 171 161 205 137 197 176 171 162 179 198 202 263 142 124 179 163 118 146 151
251 253 256 253 263 272 219 225 211 216 215 214 212 211 212 211 203 202 209 215 222 230 235 239 247 252 233 228 210 179 201 165 160 157 229 127 206 104 148 196 97 187 179 177 179 211 63 20 124 137 145 152 155 165
260 261 262 265 261 274 227 223 218 204 190 199 202 202 203 198 193 201 207 188 195 233 269 252 255 246 217 211 212 170 208 175 193 198 157 115 122 135 158 227 110 93 129 107 136 165 134 119 131 141 148 152 150 156
267 263 263 259 261 261 246 230 217 190 186 192 189 189 190 190 194 199 198 202 178 180 208 291 313 300 187 188 188 195 206 183 219 160 103 131 123 145 183 170 138 169 133 133 80 131 126 173 167 151 140 140 142 146
278 277 271 263 262 260 246 231 212 209 200 186 189 184 185 192 193 209 217 177 185 187 177 180 351 11 139 181 179 167 196 177 156 91 64 116 123 105 358 77 166 188 155 168 216 185 156 171 170 162 152 154 158 158
281 281 279 273 268 250 230 219 213 208 189 176 174 182 197 164 169 161 157 195 188 195 212 110 90 93 118 169 191 157 154 155 119 117 135 111 115 94 102 189 13 196 193 197 179 161 161 163 163 167 168 165 168 167
290 299 48 101 115 126 148 167 175 174 179 180 184 185 162 161 166 167 177 174 177 159 180 32 353 33 64 100 109 125 132 129 132 121 88 133 104 152 118 182 152 123 138 137 142 134 117 156 159 170 170 166 164 163
55 102 88 97 118 112 114 132 146 155 154 159 161 151 152 154 161 196 166 153 153 136 180 105 293 40 70 82 75 80 106 105 48 101 93 96 91 80 102 132 139 136 135 139 135 96 170 162 159 164 163 161 160 163
104 106 104 96 101 111 118 126 134 140 140 142 144 143 144 153 135 132 134 150 168 230 131 105 129 205 131 81 95 72 59 48 17 74 56 78 331 64 208 166 160 155 152 160 138 131 158 161 161 167 167 169 168 168
117 114 111 109 110 113 117 121 125 132 135 140 141 120 105 133 136 128 132 184 201 198 196 99 140 106 127 66 35 73 37 100 70 299 38 66 242 358 162 177 169 160 161 166 136 142 158 159 164 171 176 176 177 173
122 118 115 110 109 118 124 129 135 135 117 108 88 81 133 135 144 149 124 128 173 58 117 115 135 121 111 98 148 38 144 357 91 266 108 17 309 258 161 162 167 176 186 185 223 188 176 172 172 175 177 179 178 178
125 122 123 108 117 124 120 130 141 112 74 94 114 116 124 98 81 91 314 326 149 169 130 119 128 107 84 85 91 16 94 39 134 328 74 312 253 163 159 155 164 175 177 183 189 179 180 181 182 181 181 183 183 183
127 127 126 121 121 118 117 122 138 110 116 107 89 84 357 358 45 121 178 283 77 183 140 136 65 78 96 71 63 67 69 203 21 43 217 225 177 164 161 161 165 182 185 178 172 179 183 183 184 186 185 188 185 183
128 131 134 126 129 119 103 113 136 126 40 69 73 43 92 342 97 220 160 179 86 137 119 107 70 77 47 52 27 81 252 67 46 39 236 198 183 171 171 175 174 178 186 184 176 179 178 183 187 192 195 188 187 185
134 120 136 134 96 88 113 117 130 79 52 65 54 55 49 27 22 8 238 112 118 121 121 97 68 78 21 79 34 94 44 281 196 226 237 155 179 176 180 182 185 181 184 185 183 183 186 193 193 194 195 191 189 186
132 126 113 132 115 125 146 115 74 69 65 59 52 65 48 47 3 39 74 72 108 114 98 74 92 60 22 129 80 205 138 213 243 221 169 170 175 178 179 186 188 192 194 191 189 191 198 198 195 194 189 189 189 187
138 113 114 136 113 111 96 123 36 47 43 45 38 67 91 60 53 52 59 65 106 94 79 98 71 174 108 67 89 163 196 246 144 132 160 167 176 185 194 196 189 191 196 197 195 198 199 196 192 188 184 184 186 185
126 124 122 131 149 81 63 51 71 64 61 40 68 43 55 52 71 60 54 85 110 92 71 110 118 68 123 137 195 160 137 121 133 152 158 168 180 189 191 193 192 193 192 192 200 201 198 193 191 190 188 184 180 176
114 115 131 131 125 84 51 45 41 80 52 50 56 59 48 53 66 52 73 88 89 90 96 65 67 75 148 85 162 156 174 170 162 156 158 166 179 185 188 193 194 192 196 201 202 199 198 201 202 198 195 189 183 174
90 101 123 159 130 70 66 40 49 74 58 44 50 54 54 49 56 45 64 82 78 64 49 44 81 37 91 31 39 200 181 176 168 157 157 170 180 186 192 194 195 200 200 200 201 203 201 201 203 204 199 192 185 181
100 94 107 143 70 54 68 50 61 72 89 71 69 58 61 66 53 37 31 31 62 39 92 116 113 117 93 78 107 134 152 166 169 182 187 184 189 200 212 209 208 207 207 206 204 203 207 207 202 198 196 193 188 190
49 29 75 68 82 78 72 47 96 94 77 80 56 57 54 39 26 18 9 43 65 53 101 130 147 170 129 111 113 107 103 117 138 139 202 211 207 212 214 211 208 211 216 218 214 210 204 199 198 188 180 181 185 185
56 44 55 49 88 70 110 79 84 65 101 189 105 68 29 47 48 0 53 45 95 109 118 129 152 150 152 138 154 151 144 159 175 216 262 237 221 224 227 219 212 218 223 213 207 208 200 183 177 179 172 181 181 182
45 55 45 51 54 148 105 76 89 94 104 109 99 110 81 74 67 358 150 155 144 173 195 186 191 192 174 155 182 187 186 172 160 165 191 244 215 192 191 200 202 218 210 205 197 184 182 183 183 185 180 181 186 191
55 12 36 355 62 68 51 23 19 60 153 205 90 99 142 189 192 344 204 180 178 194 223 230 222 221 222 214 206 198 184 201 216 274 280 231 215 204 203 206 207 211 196 193 192 189 188 187 190 191 190 196 197 199
76 13 73 193 293 112 187 103 190 183 134 70 168 126 174 137 71 247 191 175 195 229 238 239 211 209 216 221 230 223 219 221 273 264 266 255 241 246 241 237 221 209 201 205 201 195 196 196 197 197 202 204 204 204
70 288 54 37 357 104 48 63 97 97 111 156 191 151 80 118 242 240 179 211 230 230 212 208 210 214 215 222 218 225 224 230 272 277 257 243 229 227 235 252 250 234 215 203 202 204 204 205 206 205 203 205 209 212
113 166 139 344 56 49 132 64 99 176 226 143 128 156 170 192 215 185 199 242 184 162 145 151 163 171 184 198 214 228 238 257 268 271 228 230 232 228 223 215 205 205 202 203 202 205 211 215 218 212 209 211 211 208
142 151 126 16 56 83 83 140 216 124 268 189 152 189 187 178 179 204 225 220 168 158 159 159 159 167 180 193 214 242 260 248 246 235 232 244 253 248 224 204 199 190 186 193 197 201 203 207 210 214 213 213 214 205
165 167 105 107 110 242 145 195 213 279 166 173 156 145 159 174 194 218 222 214 182 147 141 174 192 194 208 220 238 254 268 215 213 226 244 261 267 245 214 198 194 191 191 191 193 203 205 204 202 204 206 204 202 203
107 63 80 179 214 162 228 272 221 308 129 171 177 183 171 193 213 234 233 224 207 203 215 230 244 258 272 266 257 261 270 253 223 210 206 199 236 234 209 205 197 195 194 194 195 197 196 195 200 202 202 204 206 210
193 234 144 29 219 228 265 111 261 251 201 180 171 184 178 210 245 248 236 230 224 223 230 233 239 254 268 278 276 279 290 276 223 218 225 229 240 229 204 198 202 198 193 191 190 192 194 199 198 195 200 204 208 215
201 195 202 188 159 207 198 203 230 251 225 234 209 211 216 222 251 239 242 231 220 224 227 232 237 241 246 249 249 253 252 263 279 266 230 214 203 202 196 189 188 186 188 190 192 197 198 196 196 198 201 207 213 217
Height
1320 1322 1323 1324 1325 1324 1323 1324 1326 1331 1338 1344 1350 1357 1362 1368 1374 1379 1384 1389 1394 1392 1391 1391 1391 1392 1392 1393 1398 1400 1404 1406 1408 1408 1401 1411 1416 1411 1413 1420 1415 1420 1427 1432 1431 1438 1438 1426 1429 1433 1434 1434 1437 1441
1317 1317 1318 1318 1317 1313 1316 1317 1319 1323 1329 1335 1342 1349 1356 1363 1369 1376 1380 1383 1389 1390 1388 1387 1386 1386 1387 1389 1391 1393 1391 1393 1396 1403 1399 1404 1408 1412 1411 1418 1411 1424 1419 1424 1425 1428 1427 1427 1428 1428 1430 1433 1438 1441
1313 1312 1311 1311 1311 1312 1313 1315 1316 1320 1325 1331 1337 1344 1351 1358 1365 1370 1374 1379 1383 1384 1384 1384 1381 1379 1380 1382 1386 1388 1389 1387 1389 1389 1388 1393 1401 1406 1412 1416 1410 1413 1414 1421 1425 1428 1428 1428 1430 1430 1433 1435 1438 1441
1308 1307 1306 1305 1305 1306 1308 1311 1313 1318 1323 1329 1335 1341 1348 1355 1362 1367 1369 1376 1379 1384 1384 1379 1376 1373 1373 1375 1378 1384 1382 1385 1386 1386 1389 1395 1398 1398 1403 1403 1405 1408 1412 1419 1426 1427 1429 1430 1430 1431 1434 1437 1440 1444
1303 1301 1299 1298 1297 1296 1299 1303 1309 1315 1321 1327 1334 1340 1346 1353 1359 1364 1368 1372 1377 1381 1379 1378 1375 1371 1372 1374 1378 1380 1381 1383 1384 1387 1390 1395 1395 1398 1402 1402 1407 1404 1409 1415 1415 1411 1416 1421 1427 1431 1434 1438 1442 1445
1298 1296 1291 1287 1282 1280 1282 1289 1300 1310 1319 1326 1333 1338 1344 1347 1353 1361 1369 1372 1373 1375 1375 1378 1375 1374 1374 1376 1378 1379 1380 1382 1384 1386 1391 1391 1393 1397 1404 1406 1404 1404 1404 1406 1406 1410 1415 1419 1426 1431 1435 1439 1443 1447
1293 1288 1281 1276 1279 1279 1279 1281 1293 1306 1317 1326 1333 1339 1344 1349 1356 1362 1363 1364 1371 1373 1374 1377 1375 1374 1374 1375 1377 1379 1381 1383 1385 1387 1389 1391 1393 1396 1402 1404 1404 1404 1405 1405 1407 1411 1421 1422 1425 1431 1436 1440 1445 1449
1289 1288 1288 1284 1286 1287 1287 1290 1300 1311 1320 1327 1333 1340 1348 1354 1360 1361 1361 1367 1371 1373 1374 1378 1380 1378 1378 1379 1380 1381 1382 1383 1386 1388 1390 1391 1394 1396 1402 1404 1405 1406 1408 1410 1412 1412 1415 1421 1427 1432 1437 1441 1445 1450
1295 1298 1298 1296 1295 1297 1300 1305 1311 1318 1326 1333 1340 1346 1352 1356 1358 1360 1366 1370 1372 1376 1372 1375 1381 1388 1379 1380 1381 1382 1383 1389 1389 1390 1391 1393 1399 1401 1400 1402 1404 1406 1408 1411 1413 1415 1418 1422 1427 1432 1436 1441 1445 1449
1304 1306 1307 1307 1308 1310 1313 1317 1321 1326 1332 1339 1346 1351 1354 1356 1361 1364 1370 1371 1372 1371 1372 1374 1375 1379 1380 1381 1384 1386 1386 1392 1395 1395 1393 1397 1403 1400 1398 1401 1404 1407 1409 1411 1414 1419 1421 1424 1428 1432 1436 1441 1446 1449
1312 1313 1315 1317 1318 1320 1323 1327 1330 1335 1339 1343 1347 1351 1355 1360 1364 1366 1367 1369 1370 1371 1371 1373 1374 1377 1380 1383 1386 1387 1391 1393 1396 1398 1397 1403 1405 1402 1402 1404 1407 1410 1411 1413 1415 1417 1421 1424 1428 1432 1438 1442 1446 1449
1319 1322 1323 1326 1327 1330 1332 1336 1339 1341 1343 1345 1349 1356 1360 1363 1364 1367 1372 1370 1369 1370 1371 1373 1376 1377 1380 1381 1384 1389 1391 1395 1393 1398 1400 1408 1403 1401 1403 1406 1410 1412 1413 1415 1417 1419 1423 1426 1430 1434 1439 1442 1446 1450
1327 1329 1331 1334 1336 1339 1342 1344 1344 1346 1349 1352 1356 1360 1362 1367 1374 1373 1378 1372 1373 1368 1369 1372 1378 1379 1382 1384 1388 1391 1400 1405 1399 1410 1407 1403 1401 1402 1405 1408 1411 1414 1415 1417 1419 1422 1425 1429 1432 1436 1439 1443 1447 1451
1333 1336 1339 1341 1343 1346 1348 1348 1350 1352 1354 1355 1358 1369 1369 1374 1369 1368 1368 1368 1368 1367 1369 1373 1378 1381 1385 1389 1395 1400 1402 1402 1416 1415 1404 1399 1400 1403 1406 1409 1412 1414 1417 1419 1421 1424 1427 1430 1434 1437 1441 1444 1447 1451
1341 1344 1346 1348 1350 1351 1353 1353 1354 1355 1356 1359 1362 1372 1372 1371 1369 1369 1368 1368 1369 1370 1372 1377 1382 1385 1390 1395 1398 1401 1406 1414 1410 1410 1401 1399 1401 1404 1407 1410 1413 1415 1417 1420 1422 1425 1429 1431 1434 1438 1441 1444 1448 1451
1347 1350 1352 1355 1355 1355 1356 1357 1357 1357 1360 1364 1369 1372 1373 1372 1371 1370 1371 1371 1372 1373 1375 1378 1385 1393 1396 1396 1399 1405 1404 1412 1406 1399 1399 1400 1402 1405 1408 1411 1414 1416 1419 1421 1424 1427 1429 1432 1435 1438 1441 1444 1448 1451
1353 1355 1357 1358 1358 1358 1359 1359 1360 1363 1367 1370 1375 1374 1374 1375 1374 1374 1374 1374 1375 1376 1382 1383 1391 1392 1394 1398 1396 1397 1402 1399 1398 1399 1400 1402 1404 1406 1408 1411 1414 1416 1419 1421 1424 1427 1430 1432 1435 1438 1441 1444 1448 1452
1358 1360 1361 1362 1363 1364 1363 1364 1368 1371 1376 1377 1378 1379 1378 1377 1377 1378 1378 1378 1379 1380 1382 1385 1386 1393 1407 1397 1395 1397 1398 1399 1400 1401 1402 1403 1405 1407 1409 1412 1414 1417 1419 1422 1425 1427 1430 1433 1435 1438 1441 1444 1448 1451
1363 1364 1365 1365 1366 1366 1368 1371 1372 1377 1381 1381 1382 1381 1381 1381 1381 1381 1380 1380 1381 1382 1383 1386 1391 1395 1396 1394 1395 1396 1398 1400 1401 1402 1403 1404 1406 1408 1410 1412 1414 1417 1419 1422 1424 1427 1429 1432 1434 1437 1439 1442 1446 1450
1367 1368 1368 1369 1369 1370 1373 1376 1377 1380 1383 1385 1385 1384 1385 1385 1385 1384 1383 1383 1383 1384 1388 1393 1395 1395 1395 1395 1395 1396 1397 1400 1401 1403 1404 1406 1407 1409 1411 1413 1415 1417 1419 1421 1423 1426 1428 1431 1434 1436 1439 1442 1445 1449
1371 1371 1371 1371 1372 1374 1378 1380 1382 1384 1385 1387 1387 1387 1388 1388 1387 1387 1386 1386 1386 1390 1394 1395 1396 1396 1396 1397 1397 1398 1398 1400 1402 1403 1405 1406 1408 1410 1412 1413 1415 1416 1418 1420 1422 1424 1426 1429 1432 1435 1438 1442 1446 1451
1373 1373 1373 1374 1376 1379 1382 1383 1384 1386 1388 1389 1389 1389 1390 1391 1391 1391 1390 1389 1393 1394 1395 1396 1397 1397 1398 1399 1399 1400 1401 1401 1403 1404 1405 1407 1408 1409 1410 1412 1414 1416 1418 1419 1421 1423 1425 1428 1431 1434 1438 1443 1447 1451
1375 1375 1375 1376 1378 1381 1387 1385 1386 1387 1389 1390 1390 1391 1392 1393 1394 1394 1393 1394 1395 1395 1396 1397 1397 1398 1398 1399 1400 1401 1402 1403 1404 1405 1406 1406 1408 1409 1410 1412 1414 1415 1417 1418 1421 1423 1426 1428 1431 1434 1438 1443 1446 1450
1377 1377 1378 1379 1381 1385 1385 1385 1386 1388 1389 1390 1391 1394 1394 1395 1396 1394 1396 1395 1396 1397 1397 1398 1398 1399 1399 1400 1401 1402 1403 1404 1405 1406 1406 1407 1408 1409 1410 1412 1414 1415 1416 1418 1420 1422 1426 1429 1432 1434 1437 1441 1445 1449
1380 1383 1383 1384 1384 1385 1388 1389 1388 1389 1393 1391 1393 1396 1395 1395 1396 1398 1395 1395 1396 1397 1397 1397 1398 1399 1400 1400 1401 1402 1403 1404 1405 1406 1407 1408 1409 1409 1411 1412 1413 1415 1416 1417 1419 1422 1426 1429 1432 1435 1438 1441 1444 1447
1385 1384 1384 1384 1385 1386 1387 1391 1392 1391 1392 1394 1394 1393 1394 1395 1401 1399 1393 1393 1394 1395 1396 1396 1397 1398 1399 1400 1400 1401 1402 1403 1404 1405 1406 1406 1407 1408 1409 1410 1411 1413 1415 1417 1419 1421 1425 1428 1431 1434 1437 1440 1443 1446
1388 1386 1384 1384 1384 1384 1386 1386 1386 1387 1392 1394 1393 1394 1399 1403 1403 1393 1392 1393 1394 1394 1394 1394 1395 1396 1397 1398 1399 1400 1401 1402 1403 1404 1404 1404 1406 1407 1408 1409 1410 1412 1413 1415 1418 1421 1423 1426 1429 1432 1435 1439 1442 1445
1384 1384 1387 1386 1385 1385 1387 1389 1389 1390 1389 1389 1390 1396 1397 1396 1393 1391 1391 1392 1391 1392 1392 1394 1394 1396 1396 1398 1399 1399 1400 1401 1401 1401 1402 1403 1404 1405 1406 1407 1408 1409 1412 1414 1417 1419 1422 1425 1428 1430 1433 1436 1439 1442
1384 1384 1385 1386 1386 1386 1386 1388 1388 1387 1388 1388 1390 1392 1390 1390 1390 1390 1391 1390 1390 1391 1392 1393 1394 1395 1396 1397 1398 1399 1398 1399 1400 1400 1401 1402 1403 1404 1404 1406 1407 1409 1411 1413 1416 1419 1421 1424 1426 1429 1432 1435 1438 1440
1384 1385 1385 1387 1388 1389 1387 1387 1387 1387 1387 1388 1388 1389 1389 1390 1390 1390 1390 1390 1390 1391 1392 1392 1393 1394 1395 1396 1396 1397 1396 1397 1398 1399 1400 1401 1401 1402 1403 1404 1406 1408 1410 1412 1414 1417 1419 1422 1425 1428 1431 1433 1435 1438
1384 1385 1386 1386 1386 1386 1387 1387 1387 1386 1386 1387 1387 1387 1388 1389 1389 1389 1389 1389 1390 1391 1391 1392 1393 1393 1394 1394 1394 1395 1395 1396 1396 1398 1399 1399 1400 1401 1402 1404 1405 1407 1409 1411 1413 1416 1418 1421 1424 1426 1429 1431 1434 1436
1385 1385 1386 1387 1386 1387 1386 1387 1387 1387 1386 1386 1386 1387 1388 1388 1388 1387 1385 1386 1387 1389 1390 1390 1391 1392 1393 1393 1394 1394 1395 1395 1395 1396 1397 1398 1399 1400 1401 1403 1405 1407 1409 1410 1413 1415 1418 1420 1422 1425 1427 1430 1432 1434
1384 1384 1384 1385 1385 1385 1386 1387 1386 1386 1385 1385 1385 1385 1385 1386 1385 1383 1382 1382 1384 1385 1387 1388 1389 1390 1390 1391 1392 1392 1393 1394 1394 1394 1394 1396 1397 1399 1400 1402 1404 1406 1408 1410 1412 1415 1417 1419 1421 1424 1426 1428 1430 1432